| time (UTC) | temp C | wind direction | speed KPH | gust KPH | rain 1hr cm | rain 24hr cm | rain mn cm | humidity % | barometer mb |
| 20260507123121 | 19 | 526.3 | 410.4 | 0.00 | 0.99 | 0.43 | 58 | 1010.3 | |
| 20260507121601 | 19 | 526.3 | 410.4 | 0.00 | 0.99 | 0.43 | 60 | 1010.3 | |
| 20260507114604 | 18 | 175 | 6.4 | 16.1 | 0.00 | 1.09 | 0.43 | 63 | 1010.6 |
| 20260507113138 | 18 | 95 | 6.4 | 16.1 | 0.00 | 1.09 | 0.43 | 60 | 1010.6 |
| 20260507111604 | 18 | 132 | 1.6 | 14.5 | 0.00 | 1.09 | 0.43 | 64 | 1010.7 |
| 20260507110004 | 18 | 186 | 3.2 | 17.7 | 0.00 | 1.09 | 0.43 | 66 | 1010.9 |
| 20260507104600 | 18 | 86 | 8.0 | 17.7 | 0.00 | 1.17 | 0.43 | 63 | 1011.0 |
| 20260507103126 | 18 | 178 | 6.4 | 16.1 | 0.00 | 1.17 | 0.43 | 68 | 1011.0 |
| 20260507101629 | 18 | 133 | 11.3 | 19.3 | 0.00 | 1.17 | 0.43 | 67 | 1011.1 |
| 20260507100142 | 17 | 113 | 4.8 | 19.3 | 0.00 | 1.17 | 0.43 | 69 | 1011.1 |
| 20260507093125 | 17 | 92 | 8.0 | 12.9 | 0.00 | 1.19 | 0.43 | 73 | 1011.1 |
| 20260507091558 | 16 | 215 | 3.2 | 14.5 | 0.00 | 1.19 | 0.43 | 71 | 1011.0 |
| 20260507090132 | 15 | 134 | 3.2 | 14.5 | 0.00 | 1.19 | 0.43 | 76 | 1011.0 |
| 20260507084557 | 15 | 144 | 6.4 | 14.5 | 0.00 | 1.24 | 0.43 | 77 | 1011.0 |
| 20260507083130 | 15 | 171 | 6.4 | 14.5 | 0.00 | 1.24 | 0.43 | 78 | 1010.9 |
| 20260507081558 | 14 | 123 | 0.0 | 8.0 | 0.00 | 1.24 | 0.43 | 77 | 1010.9 |
| 20260507080138 | 14 | 140 | 4.8 | 14.5 | 0.00 | 1.24 | 0.43 | 78 | 1010.9 |
| 20260507074600 | 13 | 171 | 3.2 | 9.7 | 0.00 | 1.30 | 0.43 | 83 | 1010.9 |
| 20260507073143 | 13 | 126 | 1.6 | 9.7 | 0.00 | 1.30 | 0.43 | 87 | 1010.8 |
| 20260507071606 | 12 | 91 | 3.2 | 6.4 | 0.00 | 1.30 | 0.43 | 90 | 1010.8 |
| 20260507070119 | 12 | 102 | 3.2 | 4.8 | 0.00 | 1.30 | 0.43 | 90 | 1010.8 |
| 20260507064616 | 11 | 19 | 0.0 | 4.8 | 0.00 | 1.37 | 0.43 | 92 | 1010.7 |
| 20260507063058 | 10 | 19 | 1.6 | 4.8 | 0.00 | 1.37 | 0.43 | 93 | 1010.7 |
| 20260507061559 | 10 | 5 | 1.6 | 6.4 | 0.00 | 1.37 | 0.43 | 94 | 1010.6 |
| 20260507060143 | 10 | 12 | 3.2 | 4.8 | 0.00 | 1.37 | 0.43 | 95 | 1010.4 |
| 20260507054608 | 10 | 12 | 1.6 | 4.8 | 0.00 | 1.42 | 0.43 | 96 | 1010.4 |
| 20260507053118 | 10 | 5 | 1.6 | 4.8 | 0.00 | 1.42 | 0.43 | 97 | 1010.2 |
| 20260507051558 | 9 | 5 | 1.6 | 4.8 | 0.00 | 1.42 | 0.43 | 97 | 1010.1 |
| 20260507050133 | 8 | 350 | 0.0 | 3.2 | 0.00 | 1.42 | 0.43 | 96 | 1009.9 |
| 20260507044558 | 8 | 350 | 3.2 | 6.4 | 0.00 | 1.42 | 0.43 | 96 | 1009.8 |
| 20260507043129 | 8 | 333 | 3.2 | 4.8 | 0.00 | 1.42 | 0.43 | 95 | 1009.6 |
| 20260507041608 | 8 | 324 | 0.0 | 6.4 | 0.00 | 1.42 | 0.43 | 95 | 1009.3 |
| 20260507040136 | 8 | 317 | 3.2 | 6.4 | 0.08 | 1.42 | 0.43 | 95 | 1009.2 |
| 20260507034659 | 9 | 330 | 1.6 | 4.8 | 0.13 | 1.50 | 0.43 | 95 | 1009.1 |
| 20260507033123 | 9 | 5 | 0.0 | 3.2 | 0.15 | 1.50 | 0.43 | 96 | 1009.1 |
| 20260507031604 | 9 | 5 | 0.0 | 1.6 | 0.20 | 1.50 | 0.43 | 95 | 1009.1 |
| 20260507030138 | 10 | 5 | 0.0 | 3.2 | 0.15 | 1.42 | 0.36 | 95 | 1009.1 |
| 20260507024607 | 10 | 5 | 1.6 | 4.8 | 0.13 | 1.37 | 0.30 | 96 | 1009.1 |
| 20260507023122 | 10 | 5 | 1.6 | 6.4 | 0.13 | 1.37 | 0.28 | 96 | 1009.2 |
| 20260507021559 | 10 | 289 | 1.6 | 4.8 | 0.13 | 1.32 | 0.23 | 96 | 1009.1 |
| 20260507020002 | 10 | 290 | 0.0 | 3.2 | 0.13 | 1.30 | 0.23 | 96 | 1009.1 |
| 20260507014608 | 10 | 290 | 1.6 | 4.8 | 0.10 | 1.30 | 0.18 | 96 | 1009.2 |
| 20260507013136 | 10 | 313 | 0.0 | 3.2 | 0.10 | 1.27 | 0.15 | 96 | 1009.1 |
| 20260507011558 | 10 | 313 | 0.0 | 0.0 | 0.08 | 1.24 | 0.13 | 96 | 1009.1 |
| 20260507010127 | 10 | 329 | 0.0 | 3.2 | 0.05 | 1.22 | 0.10 | 96 | 1009.0 |
| 20260507004558 | 10 | 293 | 3.2 | 4.8 | 0.05 | 1.24 | 0.08 | 96 | 1008.9 |
| 20260507003121 | 9 | 57 | 0.0 | 4.8 | 0.05 | 1.22 | 0.05 | 95 | 1008.8 |
| 20260507001620 | 9 | 297 | 4.8 | 8.0 | 0.03 | 1.19 | 0.05 | 94 | 1008.5 |
| 20260506234558 | 10 | 328 | 1.6 | 4.8 | 0.05 | 1.22 | 0.05 | 92 | 1008.4 |
| 20260506233126 | 10 | 321 | 0.0 | 3.2 | 0.05 | 1.19 | 0.03 | 92 | 1008.4 |
| 20260506231558 | 10 | 318 | 1.6 | 6.4 | 0.05 | 1.19 | 0.03 | 92 | 1008.4 |
| 20260506230002 | 11 | 346 | 3.2 | 6.4 | 0.05 | 1.17 | 0.00 | 92 | 1008.4 |
| 20260506224557 | 11 | 321 | 3.2 | 4.8 | 0.03 | 1.17 | 1.17 | 93 | 1008.3 |
| 20260506223136 | 11 | 340 | 1.6 | 9.7 | 0.03 | 1.17 | 1.17 | 93 | 1008.4 |
| 20260506221603 | 11 | 300 | 1.6 | 4.8 | 0.03 | 1.17 | 1.17 | 92 | 1008.4 |
| 20260506220152 | 11 | 5 | 3.2 | 4.8 | 0.00 | 1.14 | 1.14 | 91 | 1008.4 |
| 20260506214609 | 11 | 5 | 0.0 | 3.2 | 0.00 | 1.14 | 1.14 | 92 | 1008.3 |
| 20260506213146 | 12 | 355 | 1.6 | 6.4 | 0.00 | 1.14 | 1.14 | 92 | 1008.4 |
| 20260506211559 | 12 | 275 | 0.0 | 4.8 | 0.00 | 1.14 | 1.14 | 91 | 1008.2 |
| 20260506210138 | 12 | 269 | 0.0 | 0.0 | 0.00 | 1.14 | 1.14 | 90 | 1008.2 |
| 20260506204558 | 12 | 268 | 3.2 | 4.8 | 0.00 | 1.14 | 1.14 | 89 | 1008.1 |
| 20260506201558 | 13 | 311 | 0.0 | 6.4 | 0.00 | 1.14 | 1.14 | 86 | 1007.6 |
| 20260506200152 | 13 | 290 | 1.6 | 4.8 | 0.00 | 1.14 | 1.14 | 83 | 1007.4 |
| 20260506194612 | 13 | 47 | 0.0 | 8.0 | 0.00 | 1.14 | 1.14 | 81 | 1007.1 |
| 20260506191600 | 13 | 38 | 3.2 | 8.0 | 0.00 | 1.14 | 1.14 | 84 | 1006.6 |
| 20260506190124 | 13 | 78 | 0.0 | 1.6 | 0.00 | 1.14 | 1.14 | 84 | 1006.3 |
| 20260506184557 | 13 | 78 | 0.0 | 3.2 | 0.00 | 1.14 | 1.14 | 81 | 1006.0 |
| 20260506183133 | 14 | 78 | 0.0 | 1.6 | 0.00 | 1.14 | 1.14 | 79 | 1005.7 |
| 20260506181557 | 15 | 78 | 4.8 | 11.3 | 0.00 | 1.14 | 1.14 | 76 | 1005.4 |
| 20260506180140 | 15 | 34 | 1.6 | 12.9 | 0.00 | 1.14 | 1.14 | 74 | 1005.2 |
| 20260506174601 | 16 | 115 | 4.8 | 19.3 | 0.00 | 1.14 | 1.14 | 71 | 1004.9 |
| 20260506173132 | 17 | 136 | 4.8 | 14.5 | 0.00 | 1.14 | 1.14 | 67 | 1004.5 |
| 20260506171602 | 17 | 116 | 4.8 | 12.9 | 0.00 | 1.14 | 1.14 | 66 | 1004.3 |
| 20260506170135 | 18 | 93 | 8.0 | 12.9 | 0.00 | 1.14 | 1.14 | 65 | 1004.0 |
| 20260506164559 | 18 | 121 | 3.2 | 9.7 | 0.00 | 1.14 | 1.14 | 67 | 1003.6 |
| 20260506163117 | 18 | 101 | 0.0 | 0.0 | 0.00 | 1.14 | 1.14 | 66 | 1003.6 |
| 20260506161600 | 17 | 45 | 0.0 | 6.4 | 0.00 | 1.14 | 1.14 | 68 | 1003.4 |
| 20260506160131 | 16 | 72 | 1.6 | 8.0 | 0.00 | 1.14 | 1.14 | 72 | 1003.4 |
| 20260506154559 | 16 | 5 | 3.2 | 12.9 | 0.05 | 1.14 | 1.14 | 71 | 1003.7 |
| 20260506153135 | 17 | 346 | 6.4 | 14.5 | 0.23 | 1.14 | 1.14 | 70 | 1003.8 |
| 20260506151558 | 16 | 360 | 9.7 | 16.1 | 0.28 | 1.14 | 1.14 | 76 | 1004.1 |
| 20260506150128 | 15 | 16 | 4.8 | 12.9 | 0.33 | 1.14 | 1.14 | 80 | 1004.0 |
| 20260506144601 | 16 | 5 | 4.8 | 9.7 | 0.28 | 1.09 | 1.09 | 79 | 1004.3 |
| 20260506143136 | 16 | 31 | 1.6 | 9.7 | 0.15 | 0.89 | 0.89 | 79 | 1004.1 |
| 20260506141558 | 16 | 355 | 4.8 | 9.7 | 0.13 | 0.86 | 0.86 | 77 | 1004.1 |
| 20260506140127 | 16 | 77 | 1.6 | 4.8 | 0.10 | 0.81 | 0.81 | 74 | 1004.4 |
| 20260506134618 | 16 | 79 | 0.0 | 8.0 | 0.10 | 0.79 | 0.79 | 75 | 1004.4 |
| 20260506133131 | 16 | 97 | 8.0 | 11.3 | 0.08 | 0.76 | 0.76 | 74 | 1004.4 |
| 20260506131610 | 16 | 90 | 3.2 | 11.3 | 0.08 | 0.71 | 0.71 | 76 | 1004.4 |
| 20260506130137 | 16 | 164 | 4.8 | 11.3 | 0.08 | 0.71 | 0.71 | 73 | 1004.4 |
| 20260506124600 | 17 | 219 | 4.8 | 8.0 | 0.08 | 0.71 | 0.71 | 72 | 1004.4 |